Location: Newark
(45.9456°N, 15.4064°E)
Time: 21:11:46
(UTC+00:00)

Vanguard 1 - Visible Passes

Search period start: 26 January 2020 00:00
Search period end: 05 February 2020 00:00
Orbit: 650 x 3833 km, 34.2° (Epoch: 26 January)

Date Brightness Start Highest point End Pass type
(mag) Time Alt. Az. Time Alt. Az. Time Alt. Az.
26 Jan 11.2 17:57:06 10° SW 18:00:51 23° S 18:03:16 18° SSE visible
27 Jan 11.4 18:17:58 10° SW 18:21:37 21° S 18:23:12 19° SSE visible
28 Jan 11.7 18:39:02 10° SW 18:42:23 18° S 18:43:11 17° S visible
29 Jan 11.3 16:40:24 10° SW 16:43:42 20° S 16:47:20 10° SE visible
29 Jan 11.9 19:00:26 10° SW 19:03:10 14° SSW 19:03:11 14° SSW visible
30 Jan 11.4 17:01:15 10° SW 17:04:25 19° S 17:07:56 10° SE visible
30 Jan 12.3 19:23:07 10° SSW 19:23:14 10° SSW 19:23:14 10° SSW visible
31 Jan 11.6 17:22:16 10° SW 17:25:07 16° S 17:28:17 10° SSE visible
01 Feb 11.8 17:43:38 10° SW 17:45:50 13° SSW 17:48:14 10° SSE visible
